When you browse on this site, cookies collect data to enhance your experience and personalize the content and advertising you see.
Visit our Privacy Policy to learn more. By continuing to use the site, you agree to this use of cookies and data.

Stündliche Wetter Cherebasovo

Heute, 12 Juli, Sonntag

Zeit Temperatur Niederschläge Wind Luftdruck Luftfeuchtigkeit
00:00 +15°C° 0.2 mm 4 m/S 751 mmHg 85%
01:00 +15°C° 0.2 mm 4 m/S 751 mmHg 85%
02:00 +14°C° 0.2 mm 4 m/S 751 mmHg 85%
03:00 +14°C° 0.2 mm 4 m/S 751 mmHg 85%
04:00 +13°C° 0.2 mm 5 m/S 751 mmHg 85%
05:00 +13°C° 0.2 mm 5 m/S 751 mmHg 85%
06:00 +13°C° 0.1 mm 5 m/S 751 mmHg 86%
07:00 +12°C° 0.1 mm 5 m/S 752 mmHg 88%
08:00 +12°C° 0.1 mm 5 m/S 752 mmHg 89%
09:00 +10°C° 1.3 mm 5 m/S 752 mmHg 91%
10:00 +10°C° 1.3 mm 5 m/S 752 mmHg 93%
11:00 +9°C° 1.3 mm 5 m/S 752 mmHg 95%
12:00 +9°C° 1 mm 5 m/S 753 mmHg 95%
13:00 +9°C° 1 mm 5 m/S 753 mmHg 95%
14:00 +10°C° 1 mm 4 m/S 753 mmHg 95%
15:00 +11°C° 0.7 mm 4 m/S 753 mmHg 94%
16:00 +12°C° 0.7 mm 3 m/S 753 mmHg 93%
17:00 +12°C° 0.7 mm 3 m/S 753 mmHg 92%
18:00 +13°C° 0 mm 2 m/S 753 mmHg 92%
19:00 +13°C° 0 mm 2 m/S 753 mmHg 93%
20:00 +13°C° 0 mm 1 m/S 753 mmHg 93%
21:00 +12°C° 0 mm 1 m/S 753 mmHg 93%
22:00 +12°C° 0 mm 2 m/S 752 mmHg 93%
23:00 +10°C° 0 mm 2 m/S 752 mmHg 94%

Morgen, 13 Juli, Montag

Zeit Temperatur Niederschläge Wind Luftdruck Luftfeuchtigkeit
00:00 +10°C° 0 mm 2 m/S 752 mmHg 94%
01:00 +10°C° 0 mm 2 m/S 752 mmHg 95%
02:00 +9°C° 0 mm 2 m/S 752 mmHg 96%
03:00 +9°C° 0 mm 3 m/S 752 mmHg 96%
04:00 +9°C° 0 mm 3 m/S 752 mmHg 96%
05:00 +9°C° 0 mm 3 m/S 752 mmHg 96%
06:00 +11°C° 0 mm 4 m/S 752 mmHg 91%
07:00 +12°C° 0 mm 4 m/S 752 mmHg 86%
08:00 +14°C° 0 mm 4 m/S 752 mmHg 81%
09:00 +15°C° 0 mm 4 m/S 752 mmHg 74%
10:00 +17°C° 0 mm 4 m/S 752 mmHg 68%
11:00 +17°C° 0 mm 5 m/S 751 mmHg 61%
12:00 +19°C° 0 mm 5 m/S 751 mmHg 59%
13:00 +19°C° 0 mm 5 m/S 751 mmHg 58%
14:00 +20°C° 0 mm 4 m/S 751 mmHg 56%
15:00 +20°C° 0 mm 4 m/S 751 mmHg 59%
16:00 +20°C° 0 mm 4 m/S 750 mmHg 61%
17:00 +19°C° 0 mm 4 m/S 750 mmHg 63%
18:00 +18°C° 0 mm 3 m/S 750 mmHg 70%
19:00 +17°C° 0 mm 3 m/S 750 mmHg 78%
20:00 +15°C° 0 mm 2 m/S 750 mmHg 85%
21:00 +14°C° 0 mm 2 m/S 750 mmHg 88%
22:00 +13°C° 0 mm 2 m/S 750 mmHg 91%
23:00 +12°C° 0 mm 2 m/S 750 mmHg 94%

übermorgen, 14 Juli, Dienstag

Zeit Temperatur Niederschläge Wind Luftdruck Luftfeuchtigkeit
00:00 +12°C° 0 mm 2 m/S 750 mmHg 94%
01:00 +12°C° 0 mm 2 m/S 750 mmHg 95%
02:00 +10°C° 0 mm 2 m/S 750 mmHg 95%
03:00 +10°C° 0 mm 2 m/S 750 mmHg 95%
04:00 +10°C° 0 mm 2 m/S 750 mmHg 95%
05:00 +10°C° 0 mm 2 m/S 750 mmHg 96%
06:00 +13°C° 0 mm 2 m/S 750 mmHg 91%
07:00 +14°C° 0 mm 3 m/S 750 mmHg 85%
08:00 +16°C° 0 mm 3 m/S 750 mmHg 80%
09:00 +18°C° 0 mm 3 m/S 750 mmHg 74%
10:00 +19°C° 0 mm 3 m/S 750 mmHg 68%
11:00 +21°C° 0 mm 3 m/S 750 mmHg 61%
12:00 +21°C° 0.2 mm 3 m/S 750 mmHg 64%
13:00 +20°C° 0.2 mm 4 m/S 749 mmHg 67%
14:00 +20°C° 0.2 mm 4 m/S 749 mmHg 70%
15:00 +20°C° 0.2 mm 4 m/S 749 mmHg 72%
16:00 +20°C° 0.2 mm 4 m/S 749 mmHg 73%
17:00 +20°C° 0.2 mm 3 m/S 749 mmHg 75%
18:00 +19°C° 0.1 mm 3 m/S 749 mmHg 79%
19:00 +18°C° 0.1 mm 2 m/S 749 mmHg 84%
20:00 +17°C° 0.1 mm 2 m/S 749 mmHg 88%
21:00 +16°C° 0 mm 2 m/S 749 mmHg 90%
22:00 +15°C° 0 mm 2 m/S 749 mmHg 91%
23:00 +14°C° 0 mm 2 m/S 749 mmHg 93%

15 Juli, Mittwoch

Zeit Temperatur Niederschläge Wind Luftdruck Luftfeuchtigkeit
00:00 +13°C° 0 mm 2 m/S 749 mmHg 94%
01:00 +13°C° 0 mm 2 m/S 749 mmHg 94%
02:00 +13°C° 0 mm 2 m/S 749 mmHg 94%
03:00 +12°C° 0 mm 2 m/S 749 mmHg 95%
04:00 +12°C° 0 mm 2 m/S 749 mmHg 95%
05:00 +12°C° 0 mm 2 m/S 749 mmHg 95%
06:00 +14°C° 0 mm 2 m/S 749 mmHg 88%
07:00 +16°C° 0 mm 2 m/S 749 mmHg 81%
08:00 +18°C° 0 mm 2 m/S 750 mmHg 74%
09:00 +19°C° 0 mm 2 m/S 749 mmHg 67%
10:00 +20°C° 0 mm 2 m/S 749 mmHg 61%
11:00 +23°C° 0 mm 2 m/S 749 mmHg 54%
12:00 +23°C° 0 mm 2 m/S 749 mmHg 53%
13:00 +24°C° 0 mm 2 m/S 749 mmHg 53%
14:00 +24°C° 0 mm 2 m/S 749 mmHg 52%
15:00 +24°C° 0 mm 2 m/S 749 mmHg 54%
16:00 +24°C° 0 mm 1 m/S 749 mmHg 55%
17:00 +24°C° 0 mm 1 m/S 748 mmHg 57%
18:00 +22°C° 0.1 mm 1 m/S 748 mmHg 64%
19:00 +20°C° 0.1 mm 1 m/S 748 mmHg 72%
20:00 +19°C° 0.1 mm 1 m/S 748 mmHg 79%
21:00 +18°C° 0 mm 1 m/S 748 mmHg 82%
22:00 +15°C° 0 mm 0 m/S 748 mmHg 84%
23:00 +14°C° 0 mm 0 m/S 748 mmHg 86%

16 Juli, Donnerstag

Zeit Temperatur Niederschläge Wind Luftdruck Luftfeuchtigkeit
00:00 +14°C° 0 mm 0 m/S 748 mmHg 87%
01:00 +13°C° 0 mm 0 m/S 748 mmHg 87%
02:00 +13°C° 0 mm 0 m/S 748 mmHg 88%
03:00 +13°C° 0 mm 0 m/S 748 mmHg 88%
04:00 +13°C° 0 mm 0 m/S 748 mmHg 88%
05:00 +14°C° 0 mm 1 m/S 747 mmHg 89%
06:00 +16°C° 0 mm 1 m/S 747 mmHg 84%
07:00 +18°C° 0 mm 1 m/S 747 mmHg 79%
08:00 +20°C° 0 mm 1 m/S 747 mmHg 75%
09:00 +21°C° 0.1 mm 1 m/S 747 mmHg 70%
10:00 +23°C° 0.1 mm 1 m/S 747 mmHg 66%
11:00 +24°C° 0.1 mm 1 m/S 746 mmHg 62%
12:00 +25°C° 0.2 mm 1 m/S 746 mmHg 60%
13:00 +25°C° 0.2 mm 1 m/S 746 mmHg 58%
14:00 +26°C° 0.2 mm 2 m/S 746 mmHg 56%
15:00 +25°C° 0.3 mm 1 m/S 745 mmHg 60%
16:00 +25°C° 0.3 mm 1 m/S 745 mmHg 63%
17:00 +25°C° 0.3 mm 1 m/S 745 mmHg 67%
18:00 +23°C° 0.6 mm 1 m/S 745 mmHg 73%
19:00 +20°C° 0.6 mm 2 m/S 745 mmHg 80%
20:00 +18°C° 0.6 mm 2 m/S 744 mmHg 86%
21:00 +18°C° 0.4 mm 2 m/S 744 mmHg 89%
22:00 +17°C° 0.4 mm 2 m/S 744 mmHg 92%
23:00 +17°C° 0.4 mm 2 m/S 745 mmHg 95%

17 Juli, Freitag

Zeit Temperatur Niederschläge Wind Luftdruck Luftfeuchtigkeit
00:00 +16°C° 0.2 mm 2 m/S 744 mmHg 96%
01:00 +16°C° 0.2 mm 2 m/S 744 mmHg 96%
02:00 +16°C° 0.2 mm 1 m/S 744 mmHg 97%
03:00 +16°C° 0.7 mm 1 m/S 744 mmHg 98%
04:00 +16°C° 0.7 mm 1 m/S 744 mmHg 98%
05:00 +16°C° 0.7 mm 1 m/S 744 mmHg 98%
06:00 +16°C° 1.1 mm 1 m/S 744 mmHg 98%
07:00 +16°C° 1.1 mm 2 m/S 744 mmHg 98%
08:00 +16°C° 1.1 mm 2 m/S 744 mmHg 97%
09:00 +16°C° 0.6 mm 2 m/S 744 mmHg 97%
10:00 +16°C° 0.6 mm 2 m/S 744 mmHg 96%
11:00 +16°C° 0.6 mm 3 m/S 744 mmHg 95%
12:00 +16°C° 0.4 mm 2 m/S 744 mmHg 93%
13:00 +18°C° 0.4 mm 1 m/S 744 mmHg 92%
14:00 +18°C° 0.4 mm 1 m/S 744 mmHg 90%
15:00 +18°C° 0.5 mm 1 m/S 744 mmHg 90%
16:00 +18°C° 0.5 mm 1 m/S 744 mmHg 91%
17:00 +18°C° 0.5 mm 1 m/S 744 mmHg 91%
18:00 +18°C° 0.9 mm 1 m/S 744 mmHg 93%
19:00 +16°C° 0.9 mm 1 m/S 744 mmHg 95%
20:00 +16°C° 0.9 mm 1 m/S 744 mmHg 96%
21:00 +15°C° 1 mm 2 m/S 744 mmHg 97%
22:00 +15°C° 1 mm 2 m/S 744 mmHg 98%
23:00 +15°C° 1 mm 2 m/S 744 mmHg 98%
Mehr zeigen